STARLINK-36149, 66969

Orbit data source: Space-Track

STARLINK-36149, 66969 is a payload satellite owned by SpaceX/Seattle (US) in LEO that was launched on Mon, 08 Dec 2025 UTC via an FALCON 9 launch vehicle from the Air Force Eastern Test Range (AFETR). Payload-class satellites include a variety of spacecraft equipped with specific instruments for various scientific and technological missions. These include communications satellites like Starlink; space stations such as the ISS; scientific satellites like the Hubble; Earth observation satellites from companies like Planet Labs, Umbra, and HawkEye 360; GPS; miniature CubeSats for education and research; and military/defense satellites.

Loading next visibility...
Identifier
66969, 2025-288L
Orbit
LEO
Country
Flag of USUS
Related business
Manufacturer
SpaceX/Seattle
Mission
Operational Commercial Communications
Bus & Motor
STARLINK V2MO, Unknown motor
Mass
575 kg wet, ~530 kg dry
Launch date (UTC)
2025-12-08 (5 months ago)
Launch vehicle
FALCON 9
Launch site
Air Force Eastern Test Range (AFETR)
Object type
Payload
Rocket body
Debris
Shape & HBR
Box + 2 Pan, 17.7 m
Radar Cross Section
36.964 m²

Expand to show TLE details & history
Last TLE update: 12 hours ago

TLE from 12 hours ago
0 STARLINK-36149
1 66969U 25288L   26129.95844645  .00017893  00000-0  65842-3 0  9992
2 66969  43.0014  37.7905 0001684 257.2617 102.8047 15.27567700 24659
Epoch: 2026-05-09T23:00Z
TLE epoch observation values (Epoch: 2026-05-09T23:00:09.773Z)
Latitude
0.00003°
Longitude
-175.01861°
Altitude
483.118 km
Speed
7.626 km/s
True Right ascension
02h 31m 09s
True Declination
0° 00' 00"
Sunlit
Object was in daylight at epoch
Visualization orbit readout
Latitude
Unknown
Longitude
Unknown
Altitude
Unknown
Speed
Unknown
Apparent Right ascension
Unknown
Apparent Declination
Unknown
Sunlit
N/A
Visualization observer readout
Local Sidereal Time
18:56:51
Azimuth
Unknown
Elevation
Unknown
Doppler factor
Unknown
Orbital elements
Apogee altitude
486.187 km
Perigee altitude
483.875 km
Semi-major axis
6,863.168 km
Eccentricity
0.00017
Inclination
43.0014°
RAAN
37.7905°
Arg. of periapsis
257.2617°
True anomaly
102.82352°
Mean anomaly
102.8047°
Eccentric anomaly
102.81411°
Mean motion
3.8173 °/min
Orbital period
94.31 mins
BSTAR
0.00065842
Loading maneuver chart data...
Computing Atmospheric mass density...
Loading historical data...
Loading historical data...
Loading historical data...
Loading historical data...
Loading historical data...
Loading historical data...
Loading historical data...

Documentation

Showing up to 5 results
|